IUS DEB, 43361

Orbit data source: Space-Track

IUS DEB, 43361 is space debris originally from a launch on Fri, 23 Jul 1999 UTC launched from the Air Force Eastern Test Range (AFETR). Debris objects in space refer to the collection of defunct objects orbiting the Earth. Examples of debris include non-operational satellites, rocket bodies, and fragments generated from explosions, collisions, or faulty payload assembly.

Loading next visibility...
Identifier
43361, 1999-040J
Orbit
Active
Country
Flag of USUS
Related business
Manufacturer
Boeing/Kent
Mission
Spacecraft
Bus & Motor
Unknown
Mass
Unknown
Launch date (UTC)
1999-07-23 (26 years ago)
Launch vehicle
Unknown
Launch site
Air Force Eastern Test Range (AFETR)
Object type
Payload
Rocket body
Debris
Shape & HBR
Unknown shape, 0.1 m
Radar Cross Section
Small (<0.1 m²)

Expand to show TLE details & history
Last TLE update: 3 months ago

TLE from 3 months ago
0 IUS DEB
1 43361U 99040J   25216.30800218  .00000347  00000-0  75119-2 0  9996
2 43361  27.8445 238.2199 3364172 206.4873 131.5407  7.21211150260413
Epoch: 2025-08-04T07:23Z
TLE epoch observation values (Epoch: 2025-08-04T07:23:31.388Z)
Latitude
-0.00001°
Longitude
174.22177°
Altitude
7,980.621 km
Speed
4.506 km/s
True Right ascension
15h 52m 52s
True Declination
0° 00' 00"
Sunlit
Object was in daylight at epoch
Visualization orbit readout
Latitude
Unknown
Longitude
Unknown
Altitude
Unknown
Speed
Unknown
Apparent Right ascension
Unknown
Apparent Declination
Unknown
Sunlit
N/A
Visualization observer readout
Local Sidereal Time
11:54:46
Azimuth
Unknown
Elevation
Unknown
Doppler factor
Unknown
Orbital elements
Apogee altitude
8,748.982 km
Perigee altitude
1,133.062 km
Semi-major axis
11,319.159 km
Eccentricity
0.33642
Inclination
27.8445°
RAAN
238.2199°
Arg. of periapsis
206.4873°
True anomaly
153.54922°
Mean anomaly
131.5407°
Eccentric anomaly
143.11101°
Mean motion
1.80228 °/min
Orbital period
199.75 mins
BSTAR
0.0075119
Loading maneuver chart data...
Computing Atmospheric mass density...
Loading historical data...
Loading historical data...
Loading historical data...
Loading historical data...
Loading historical data...
Loading historical data...
Loading historical data...

Documentation

Showing up to 5 results
|